COSMOS 2251 DEB, 33894

Orbit data source: Space-Track

COSMOS 2251 DEB, 33894 is space debris in LEO originally from a launch on Wed, 16 Jun 1993 UTC launched from the Plesetsk Missile And Space Complex (PKMTR). The debris from Iridium 33, an American commercial communications satellite, has been tracked extensively since its accidental collision with the defunct Russian satellite Cosmos 2251 in 2009. This event, occurring at high speed in low Earth orbit (LEO), generated thousands of pieces of space debris, significantly increasing the risk of further collisions. The Iridium 33 debris cloud has impacted space traffic management and orbital debris mitigation strategies, making it a subject of ongoing study in space situational awareness.

Loading next visibility...
Identifier
33894, 1993-036CX
Orbit
LEO
Country
Flag of CISCIS
Related business
Manufacturer
Unknown
Mission
Spacecraft
Bus & Motor
Unknown
Mass
Unknown
Launch date (UTC)
1993-06-16 (32 years ago)
Launch vehicle
Unknown
Launch site
Plesetsk Missile And Space Complex (PKMTR)
Object type
Payload
Rocket body
Debris
Shape & HBR
Unknown shape, 0.1 m
Radar Cross Section
Small (<0.1 m²)

Expand to show TLE details & history
Last TLE update: 17 hours ago

TLE from 17 hours ago
0 COSMOS 2251 DEB
1 33894U 93036CX  25292.54719124  .00001531  00000-0  15744-2 0  9994
2 33894  73.7629  72.9150 0577434 359.8499   0.2327 13.21067897799928
Epoch: 2025-10-19T13:07Z
TLE epoch observation values (Epoch: 2025-10-19T13:07:57.323Z)
Latitude
-0.00007°
Longitude
-152.33616°
Altitude
746.578 km
Speed
7.694 km/s
True Right ascension
04h 51m 39s
True Declination
0° 00' 00"
Sunlit
Object was in full shadow at epoch
Visualization orbit readout
Latitude
Unknown
Longitude
Unknown
Altitude
Unknown
Speed
Unknown
Apparent Right ascension
Unknown
Apparent Declination
Unknown
Sunlit
N/A
Visualization observer readout
Local Sidereal Time
00:58:57
Azimuth
Unknown
Elevation
Unknown
Doppler factor
Unknown
Orbital elements
Apogee altitude
1,614.748 km
Perigee altitude
742.067 km
Semi-major axis
7,556.545 km
Eccentricity
0.05774
Inclination
73.7629°
RAAN
72.915°
Arg. of periapsis
359.8499°
True anomaly
0.26166°
Mean anomaly
0.2327°
Eccentric anomaly
0.24696°
Mean motion
3.30414 °/min
Orbital period
108.95 mins
BSTAR
0.0015744

Documentation

Showing up to 5 results
|